CDT,Max TemperatureF,Mean TemperatureF,Min TemperatureF,Max Dew PointF,MeanDew PointF,Min DewpointF,Max Humidity, Mean Humidity, Min Humidity, Max Sea Level PressureIn, Mean Sea Level PressureIn, Min Sea Level PressureIn, Max VisibilityMiles, Mean VisibilityMiles, Min VisibilityMiles, Max Wind SpeedMPH, Mean Wind SpeedMPH, Max Gust SpeedMPH,PrecipitationIn, CloudCover, Events, WindDirDegrees
2013-10-1,73,60,48,52,40,27,82,47,18,29.99,29.82,29.50,10,10,10,21,10,25,0.00,0,,263
2013-10-2,73,57,41,54,44,34,93,72,23,30.00,29.92,29.81,10,10,7,23,5,31,0.10,3,Rain-Thunderstorm,76
2013-10-3,57,52,48,52,51,46,94,89,82,29.99,29.91,29.87,10,8,1,15,8,18,0.01,7,Rain-Thunderstorm,24
2013-10-4,57,55,53,54,52,50,94,89,82,29.99,29.91,29.77,10,9,2,24,12,34,0.24,8,Rain-Thunderstorm,61
2013-10-5,57,50,42,55,43,37,94,75,51,29.78,29.75,29.69,10,9,2,20,11,25,0.04,6,Rain,147
2013-10-6,59,50,42,46,42,34,93,80,39,29.90,29.82,29.74,10,10,7,23,12,30,0.05,5,Rain,320
2013-10-7,69,54,39,45,39,28,93,62,21,29.98,29.91,29.86,10,10,10,8,4,,0.00,0,,193
2013-10-8,78,63,48,46,43,37,82,50,23,29.87,29.74,29.66,10,10,10,21,11,31,0.00,0,,169
2013-10-9,77,62,48,50,47,45,87,56,34,29.97,29.91,29.81,10,10,10,10,5,,0.00,0,,147
2013-10-10,82,68,55,54,49,46,77,53,28,29.94,29.83,29.72,10,10,10,18,10,28,0.00,0,,150
2013-10-11,69,61,53,59,51,43,88,67,43,29.74,29.60,29.43,10,10,4,28,15,36,0.08,3,Rain-Thunderstorm,154
2013-10-12,60,48,37,43,37,30,87,62,34,30.22,29.92,29.66,10,10,7,28,18,36,0.00,5,Rain,269
2013-10-13,60,46,32,37,33,28,93,65,29,30.41,30.34,30.22,10,10,3,9,4,,0.00,1,Rain,162
2013-10-14,50,47,44,46,40,34,93,77,54,30.33,30.12,29.81,10,10,3,25,11,34,0.82,7,Rain,108
2013-10-15,50,47,44,46,44,39,93,89,81,29.97,29.80,29.67,10,7,2,24,17,30,1.15,8,Rain,15
2013-10-16,59,46,32,39,35,30,93,71,38,30.00,29.94,29.85,10,10,10,21,10,26,0.00,1,,268
2013-10-17,48,42,37,45,38,34,93,85,76,29.96,29.87,29.79,10,10,5,24,7,31,0.19,6,Rain,303
2013-10-18,53,40,28,37,32,27,100,76,35,30.01,29.94,29.83,10,10,10,15,8,21,0.00,2,Rain,263
2013-10-19,44,38,32,37,31,25,93,75,49,29.82,29.77,29.71,10,10,10,23,9,28,0.01,5,Rain,278
2013-10-20,44,40,33,41,34,27,93,83,75,29.97,29.74,29.59,10,10,5,22,9,28,0.09,8,Rain,324
2013-10-21,42,34,26,28,24,21,93,67,42,30.00,29.97,29.95,10,10,10,16,9,22,0.00,5,,318
2013-10-22,39,31,23,30,26,21,100,75,49,30.08,30.03,29.97,10,10,7,16,4,20,0.00,7,,312
2013-10-23,42,35,28,30,26,21,93,69,42,30.17,30.08,30.03,10,10,10,20,8,25,0.00,7,,322
2013-10-24,44,35,26,34,29,23,100,79,57,30.33,30.27,30.17,10,10,10,21,7,25,0.00,4,,294
2013-10-25,62,42,23,43,32,21,93,70,37,30.32,30.04,29.81,10,10,10,21,7,29,0.00,0,,222
2013-10-26,46,37,28,34,28,25,93,66,46,30.18,30.09,29.92,10,10,7,23,13,31,0.00,1,,312
2013-10-27,57,42,28,34,29,25,93,66,36,30.17,29.92,29.78,10,10,10,22,8,26,0.00,0,,352
2013-10-28,42,34,26,28,23,19,93,67,39,30.45,30.37,30.18,10,10,7,16,9,20,0.00,1,,53
2013-10-29,35,32,30,34,31,23,100,87,65,30.41,30.23,30.08,10,7,1,12,8,,0.09,8,Rain-Snow,66
2013-10-30,42,38,35,39,37,34,100,93,87,30.08,29.89,29.71,7,3,1,8,3,,0.07,8,Rain-Snow,17
2013-10-31,42,40,37,37,36,36,100,88,76,29.71,29.54,29.44,10,9,5,10,6,,0.00,8,,275